IW7DVM-13 Weather Reports


Display with metric or nautical units.
time (UTC)temp
F
wind
direction
speed
MPH
gust
MPH
rain 1hr
in
rain 24hr
in
rain mn
in
humidity
%
barometer
mb
20220518140004 85 341 11.0 21.0 0.00 0.00 0.00 34 1010.0
20220518135503 85 335 13.0 19.0 0.00 0.00 0.00 34 1010.2
20220518135003 86 335 10.0 20.0 0.00 0.00 0.00 33 1010.0
20220518134504 86 338 10.0 17.0 0.00 0.00 0.00 33 1010.0
20220518130004 86 345 12.0 20.0 0.00 0.00 0.00 30 1010.4
20220518125503 86 345 10.0 19.0 0.00 0.00 0.00 31 1010.3
20220518125003 85 356 12.0 19.0 0.00 0.00 0.00 32 1010.4
20220518124504 85 339 6.0 19.0 0.00 0.00 0.00 32 1010.4
20220518124004 85 343 10.0 21.0 0.00 0.00 0.00 30 1010.7
20220518123504 86 351 12.0 20.0 0.00 0.00 0.00 30 1010.8
20220518123003 85 354 12.0 21.0 0.00 0.00 0.00 32 1010.6
20220518122503 86 5 7.0 21.0 0.00 0.00 0.00 31 1010.5
20220518122004 86 6 14.0 19.0 0.00 0.00 0.00 32 1010.5
20220518121504 86 3 11.0 21.0 0.00 0.00 0.00 32 1010.6
20220518121003 85 10 13.0 21.0 0.00 0.00 0.00 33 1010.6
20220518120504 85 14 11.0 21.0 0.00 0.00 0.00 33 1010.6
20220518120004 85 8 20.0 20.0 0.00 0.00 0.00 33 1010.6
20220518115504 86 8 14.0 18.0 0.00 0.00 0.00 34 1010.8
20220518115003 85 10 11.0 22.0 0.00 0.00 0.00 35 1010.6
20220518114503 85 351 6.0 18.0 0.00 0.00 0.00 36 1010.7
20220518114004 85 350 10.0 18.0 0.00 0.00 0.00 37 1010.8
20220518113504 85 2 10.0 19.0 0.00 0.00 0.00 38 1010.7
20220518113003 85 17 4.0 18.0 0.00 0.00 0.00 39 1010.7
20220518112503 85 1 20.0 20.0 0.00 0.00 0.00 39 1010.8
20220518112004 85 12 14.0 20.0 0.00 0.00 0.00 39 1010.7
20220518111504 85 8 17.0 20.0 0.00 0.00 0.00 40 1010.7
20220518111004 85 342 9.0 20.0 0.00 0.00 0.00 40 1010.6
20220518110503 85 10 3.0 20.0 0.00 0.00 0.00 42 1010.7
20220518110004 84 358 11.0 18.0 0.00 0.00 0.00 42 1010.7
20220518105503 84 2 5.0 18.0 0.00 0.00 0.00 41 1010.6
20220518105003 84 349 14.0 20.0 0.00 0.00 0.00 40 1010.6
20220518104503 84 352 8.0 20.0 0.00 0.00 0.00 42 1010.6
20220518104004 84 5 20.0 21.0 0.00 0.00 0.00 42 1010.7
20220518103503 84 1 19.0 20.0 0.00 0.00 0.00 42 1010.6
20220518103004 84 354 11.0 21.0 0.00 0.00 0.00 41 1010.6
20220518102503 83 343 9.0 19.0 0.00 0.00 0.00 41 1010.6
20220518102004 84 345 4.0 19.0 0.00 0.00 0.00 40 1010.6
20220518101503 83 342 7.0 20.0 0.00 0.00 0.00 41 1010.7
20220518101003 83 352 7.0 20.0 0.00 0.00 0.00 41 1010.7
20220518100503 83 344 5.0 18.0 0.00 0.00 0.00 43 1010.7
20220518100003 83 341 4.0 20.0 0.00 0.00 0.00 41 1010.6
20220518095503 84 336 16.0 21.0 0.00 0.00 0.00 41 1010.6
20220518095004 83 3 5.0 13.0 0.00 0.00 0.00 43 1010.6
20220518094503 83 346 5.0 18.0 0.00 0.00 0.00 44 1010.6
20220518094004 83 343 16.0 16.0 0.00 0.00 0.00 44 1010.7
20220518093504 83 347 10.0 18.0 0.00 0.00 0.00 45 1010.6
20220518093003 82 338 9.0 17.0 0.00 0.00 0.00 45 1010.7
20220518092503 82 336 9.0 18.0 0.00 0.00 0.00 46 1010.7
20220518092003 81 340 17.0 20.0 0.00 0.00 0.00 46 1010.6
20220518091503 81 327 5.0 17.0 0.00 0.00 0.00 46 1010.7
20220518091004 80 291 13.0 22.0 0.00 0.00 0.00 48 1010.6
20220518090504 81 307 3.0 14.0 0.00 0.00 0.00 49 1010.6
20220518090004 80 312 6.0 15.0 0.00 0.00 0.00 50 1010.6
20220518085504 80 345 12.0 20.0 0.00 0.00 0.00 50 1010.7
20220518085003 80 333 3.0 20.0 0.00 0.00 0.00 52 1010.7
20220518084503 80 337 7.0 14.0 0.00 0.00 0.00 52 1010.8
20220518084004 79 326 5.0 21.0 0.00 0.00 0.00 52 1010.8
20220518083504 80 339 6.0 14.0 0.00 0.00 0.00 53 1010.7
20220518083004 80 352 10.0 17.0 0.00 0.00 0.00 53 1010.8
20220518082503 79 345 2.0 15.0 0.00 0.00 0.00 54 1010.8
20220518082004 79 331 3.0 15.0 0.00 0.00 0.00 55 1010.9
20220518081503 78 325 2.0 13.0 0.00 0.00 0.00 56 1010.8
20220518081004 77 322 12.0 12.0 0.00 0.00 0.00 60 1010.8
20220518080503 76 296 4.0 12.0 0.00 0.00 0.00 61 1010.9
20220518080004 74 270 5.0 11.0 0.00 0.00 0.00 65 1010.9
20220518075503 74 230 4.0 8.0 0.00 0.00 0.00 65 1010.9
20220518075003 74 253 2.0 8.0 0.00 0.00 0.00 64 1010.8
20220518074503 75 264 2.0 11.0 0.00 0.00 0.00 63 1010.9
20220518074003 75 285 2.0 9.0 0.00 0.00 0.00 63 1010.9
20220518073504 74 266 4.0 11.0 0.00 0.00 0.00 63 1010.9
20220518073004 74 256 4.0 12.0 0.00 0.00 0.00 66 1011.0
20220518072503 72 228 5.0 10.0 0.00 0.00 0.00 68 1010.9
20220518072004 72 226 6.0 11.0 0.00 0.00 0.00 67 1011.0
20220518071503 73 226 6.0 11.0 0.00 0.00 0.00 66 1011.0
20220518071003 73 234 6.0 13.0 0.00 0.00 0.00 65 1011.1
20220518070504 74 242 7.0 8.0 0.00 0.00 0.00 65 1011.1
20220518070003 74 262 7.0 9.0 0.00 0.00 0.00 61 1011.1
20220518065504 74 301 2.0 9.0 0.00 0.00 0.00 62 1010.9
20220518065003 73 280 1.0 9.0 0.00 0.00 0.00 63 1011.0
20220518064503 73 260 3.0 13.0 0.00 0.00 0.00 63 1010.9
20220518064003 73 283 5.0 8.0 0.00 0.00 0.00 65 1010.8
20220518063504 72 304 2.0 6.0 0.00 0.00 0.00 67 1010.9
20220518063004 71 285 3.0 6.0 0.00 0.00 0.00 70 1010.9
20220518062504 71 242 1.0 7.0 0.00 0.00 0.00 74 1010.9
20220518062004 70 243 3.0 9.0 0.00 0.00 0.00 74 1010.9
20220518061503 71 227 6.0 6.0 0.00 0.00 0.00 73 1010.8
20220518061003 71 229 3.0 6.0 0.00 0.00 0.00 72 1010.8
20220518060504 71 229 0.0 8.0 0.00 0.00 0.00 71 1010.8
20220518060004 70 235 0.0 10.0 0.00 0.00 0.00 72 1010.8
20220518055503 70 258 2.0 6.0 0.00 0.00 0.00 74 1010.7
20220518055004 70 244 2.0 5.0 0.00 0.00 0.00 75 1010.9
20220518054504 70 249 1.0 6.0 0.00 0.00 0.00 75 1010.9
20220518054003 69 234 3.0 7.0 0.00 0.00 0.00 75 1010.9
20220518053504 70 229 3.0 9.0 0.00 0.00 0.00 75 1010.8
20220518053004 70 232 6.0 9.0 0.00 0.00 0.00 75 1010.9
20220518052504 70 242 3.0 7.0 0.00 0.00 0.00 75 1010.9
20220518052004 70 227 5.0 8.0 0.00 0.00 0.00 74 1010.8
20220518051504 70 230 3.0 8.0 0.00 0.00 0.00 73 1010.9
20220518051003 70 257 0.0 5.0 0.00 0.00 0.00 72 1010.9
20220518050504 69 255 4.0 6.0 0.00 0.00 0.00 73 1010.8
20220518050004 69 258 4.0 5.0 0.00 0.00 0.00 73 1010.7
20220518045504 69 253 5.0 5.0 0.00 0.00 0.00 74 1010.7
20220518045004 69 267 1.0 6.0 0.00 0.00 0.00 74 1010.6
20220518044504 68 263 2.0 3.0 0.00 0.00 0.00 75 1010.6
20220518044003 68 265 1.0 4.0 0.00 0.00 0.00 76 1010.5
20220518043503 68 259 3.0 4.0 0.00 0.00 0.00 76 1010.5
20220518043004 68 269 2.0 4.0 0.00 0.00 0.00 76 1010.5
20220518042504 67 268 2.0 3.0 0.00 0.00 0.00 77 1010.5
20220518042004 67 265 1.0 2.0 0.00 0.00 0.00 77 1010.4
20220518041503 67 283 0.0 2.0 0.00 0.00 0.00 78 1010.3
20220518041003 67 274 0.0 1.0 0.00 0.00 0.00 78 1010.3
20220518040506 67 281 0.0 2.0 0.00 0.00 0.00 78 1010.3
20220518040004 66 266 0.0 2.0 0.00 0.00 0.00 78 1010.3
20220518035504 66 272 0.0 2.0 0.00 0.00 0.00 78 1010.3
20220518035003 66 286 0.0 2.0 0.00 0.00 0.00 77 1010.2
20220518034504 66 275 0.0 3.0 0.00 0.00 0.00 77 1010.1
20220518034003 66 254 1.0 2.0 0.00 0.00 0.00 77 1010.1
20220518033503 66 239 1.0 2.0 0.00 0.00 0.00 77 1010.1
20220518033004 67 336 1.0 3.0 0.00 0.00 0.00 77 1009.9
20220518032504 67 325 3.0 4.0 0.00 0.00 0.00 77 1009.8
20220518032004 67 308 0.0 2.0 0.00 0.00 0.00 77 1009.9
20220518031504 67 262 0.0 4.0 0.00 0.00 0.00 77 1009.8
20220518031003 67 269 0.0 3.0 0.00 0.00 0.00 76 1009.9
20220518030503 67 281 2.0 4.0 0.00 0.00 0.00 76 1009.8
20220518030004 67 268 2.0 4.0 0.00 0.00 0.00 77 1009.7
20220518025503 67 310 0.0 6.0 0.00 0.00 0.00 77 1009.6
20220518025004 67 310 0.0 4.0 0.00 0.00 0.00 77 1009.7
20220518024503 67 302 2.0 4.0 0.00 0.00 0.00 78 1009.6
20220518024004 67 301 3.0 4.0 0.00 0.00 0.00 78 1009.7
20220518023503 67 270 0.0 4.0 0.00 0.00 0.00 79 1009.7
20220518023003 66 298 2.0 3.0 0.00 0.00 0.00 80 1009.6
20220518022503 66 324 2.0 4.0 0.00 0.00 0.00 80 1009.7
20220518022004 66 321 2.0 3.0 0.00 0.00 0.00 80 1009.6
20220518021504 66 319 2.0 4.0 0.00 0.00 0.00 80 1009.6
20220518021003 66 336 1.0 4.0 0.00 0.00 0.00 80 1009.6
20220518020504 66 5 2.0 5.0 0.00 0.00 0.00 80 1009.6
20220518020003 66 337 2.0 4.0 0.00 0.00 0.00 80 1009.6
20220518015504 66 333 2.0 3.0 0.00 0.00 0.00 81 1009.6
20220518015004 66 329 1.0 3.0 0.00 0.00 0.00 80 1009.6
20220518014504 66 336 2.0 4.0 0.00 0.00 0.00 80 1009.6
20220518014004 66 357 2.0 3.0 0.00 0.00 0.00 80 1009.5
20220518013503 66 357 2.0 3.0 0.00 0.00 0.00 80 1009.5
20220518013003 66 353 2.0 4.0 0.00 0.00 0.00 80 1009.6
20220518012503 66 315 0.0 1.0 0.00 0.00 0.00 80 1009.6
20220518012004 66 249 0.0 2.0 0.00 0.00 0.00 80 1009.6
20220518011504 66 267 0.0 2.0 0.00 0.00 0.00 80 1009.6
20220518011003 66 258 0.0 2.0 0.00 0.00 0.00 79 1009.6
20220518010503 66 0 0.0 0.0 0.00 0.00 0.00 79 1009.5
20220518010003 66 242 0.0 2.0 0.00 0.00 0.00 80 1009.5
20220518005504 66 283 0.0 1.0 0.00 0.00 0.00 80 1009.5
20220518005004 66 276 0.0 2.0 0.00 0.00 0.00 79 1009.5
20220518004504 66 263 0.0 2.0 0.00 0.00 0.00 79 1009.5
20220518004004 66 350 0.0 2.0 0.00 0.00 0.00 79 1009.6
20220518003503 66 360 1.0 2.0 0.00 0.00 0.00 79 1009.7
20220518003004 66 22 2.0 2.0 0.00 0.00 0.00 79 1009.6
20220518002504 66 22 0.0 2.0 0.00 0.00 0.00 78 1009.7
20220518002004 66 22 0.0 3.0 0.00 0.00 0.00 78 1009.8
20220518001504 67 16 1.0 3.0 0.00 0.00 0.00 78 1009.9
20220518001004 67 19 2.0 3.0 0.00 0.00 0.00 77 1009.9
20220518000503 67 21 3.0 3.0 0.00 0.00 0.00 77 1010.0
20220518000003 68 15 4.0 4.0 0.00 0.00 0.00 76 1010.0
20220517235503 68 348 1.0 5.0 0.00 0.00 0.00 76 1010.1
20220517235003 68 339 3.0 8.0 0.00 0.00 0.00 76 1010.2
20220517234503 68 335 4.0 4.0 0.00 0.00 0.00 76 1010.1
20220517234004 68 342 2.0 5.0 0.00 0.00 0.00 76 1010.0
20220517233504 68 344 1.0 6.0 0.00 0.00 0.00 76 1009.9
20220517233003 68 325 1.0 7.0 0.00 0.00 0.00 76 1009.9
20220517232503 68 327 0.0 3.0 0.00 0.00 0.00 76 1009.9
20220517232004 68 306 0.0 4.0 0.00 0.00 0.00 76 1009.9
20220517231503 68 304 1.0 5.0 0.00 0.00 0.00 76 1010.1
20220517231004 68 305 2.0 4.0 0.00 0.00 0.00 76 1010.1
20220517230504 68 337 3.0 4.0 0.00 0.00 0.00 76 1010.2
20220517230003 68 266 2.0 3.0 0.00 0.00 0.00 77 1010.2
20220517225503 68 275 0.0 4.0 0.00 0.00 0.00 78 1010.3
20220517225004 68 316 0.0 2.0 0.00 0.00 0.00 78 1010.2
20220517224505 68 310 0.0 1.0 0.00 0.00 0.00 79 1010.2
20220517224003 68 299 0.0 2.0 0.00 0.00 0.00 79 1010.1
20220517223504 68 264 0.0 5.0 0.00 0.00 0.00 79 1010.2
20220517223004 68 260 1.0 5.0 0.00 0.00 0.00 80 1010.2
20220517222503 68 267 2.0 5.0 0.00 0.00 0.00 80 1010.3
20220517222003 68 252 5.0 8.0 0.00 0.00 0.00 80 1010.3
20220517221504 68 266 2.0 7.0 0.00 0.00 0.00 80 1010.3
20220517221004 68 238 4.0 6.0 0.00 0.00 0.00 79 1010.3
20220517220503 68 261 3.0 8.0 0.00 0.00 0.00 79 1010.3
20220517220004 68 256 2.0 4.0 0.00 0.00 0.00 79 1010.4
20220517215503 68 242 2.0 2.0 0.00 0.00 0.00 78 1010.3
20220517215004 68 262 0.0 1.0 0.00 0.00 0.00 78 1010.3
20220517214504 68 251 0.0 1.0 0.00 0.00 0.00 78 1010.3
20220517214004 68 315 0.0 1.0 0.00 0.00 0.00 78 1010.3
20220517213503 68 278 0.0 2.0 0.00 0.00 0.00 78 1010.3
20220517213004 68 251 1.0 2.0 0.00 0.00 0.00 78 1010.4
20220517212503 68 251 0.0 3.0 0.00 0.00 0.00 78 1010.5
20220517212003 68 243 1.0 2.0 0.00 0.00 0.00 77 1010.4
20220517211504 68 337 1.0 1.0 0.00 0.00 0.00 77 1010.4
20220517211004 68 337 0.0 2.0 0.00 0.00 0.00 77 1010.3
20220517210503 68 360 0.0 1.0 0.00 0.00 0.00 76 1010.3
20220517210004 68 0 0.0 0.0 0.00 0.00 0.00 76 1010.3
20220517205503 68 0 0.0 0.0 0.00 0.00 0.00 76 1010.4
20220517205003 68 0 0.0 0.0 0.00 0.00 0.00 75 1010.3
20220517204504 68 45 0.0 1.0 0.00 0.00 0.00 75 1010.3
20220517204004 69 45 0.0 3.0 0.00 0.00 0.00 74 1010.2
20220517203504 69 32 2.0 2.0 0.00 0.00 0.00 74 1010.2
20220517203003 69 360 2.0 2.0 0.00 0.00 0.00 74 1010.2
20220517202503 69 0 0.0 0.0 0.00 0.00 0.00 74 1010.3
20220517202004 69 0 0.0 0.0 0.00 0.00 0.00 74 1010.3
20220517201504 69 350 0.0 2.0 0.00 0.00 0.00 74 1010.3
20220517201004 69 350 2.0 2.0 0.00 0.00 0.00 74 1010.3
20220517200503 69 340 2.0 2.0 0.00 0.00 0.00 73 1010.2
20220517200004 69 360 0.0 1.0 0.00 0.00 0.00 73 1010.3
20220517195503 70 360 0.0 1.0 0.00 0.00 0.00 73 1010.3
20220517195003 70 20 0.0 3.0 0.00 0.00 0.00 73 1010.2
20220517194506 70 6 2.0 3.0 0.00 0.00 0.00 73 1010.3
20220517194004 70 0 0.0 0.0 0.00 0.00 0.00 73 1010.4
20220517193503 70 355 0.0 2.0 0.00 0.00 0.00 73 1010.3
20220517193004 70 344 2.0 2.0 0.00 0.00 0.00 73 1010.3
20220517192503 70 320 1.0 2.0 0.00 0.00 0.00 73 1010.2
20220517192003 70 314 1.0 2.0 0.00 0.00 0.00 73 1010.2
20220517191504 70 315 0.0 1.0 0.00 0.00 0.00 72 1010.2
20220517191004 71 284 0.0 2.0 0.00 0.00 0.00 72 1010.1
20220517190503 71 315 0.0 2.0 0.00 0.00 0.00 72 1010.0
20220517190004 71 0 0.0 0.0 0.00 0.00 0.00 72 1010.1
20220517185503 71 0 0.0 0.0 0.00 0.00 0.00 72 1010.1
20220517185004 71 0 0.0 0.0 0.00 0.00 0.00 72 1010.2
20220517184504 71 279 0.0 1.0 0.00 0.00 0.00 71 1010.3
20220517184004 71 323 0.0 2.0 0.00 0.00 0.00 71 1010.2
20220517183504 71 196 0.0 3.0 0.00 0.00 0.00 70 1010.3
20220517183004 71 242 1.0 3.0 0.00 0.00 0.00 70 1010.2
20220517182503 71 302 0.0 2.0 0.00 0.00 0.00 69 1010.2
20220517182004 72 350 0.0 4.0 0.00 0.00 0.00 68 1010.4
20220517181503 71 354 0.0 4.0 0.00 0.00 0.00 68 1010.2
20220517181004 72 337 2.0 2.0 0.00 0.00 0.00 67 1010.2
20220517180504 72 212 0.0 3.0 0.00 0.00 0.00 67 1010.4
20220517180004 72 216 1.0 3.0 0.00 0.00 0.00 66 1010.3
20220517175504 72 243 2.0 4.0 0.00 0.00 0.00 66 1010.3
20220517174503 72 310 4.0 6.0 0.00 0.00 0.00 66 1009.9
20220517174004 72 356 4.0 8.0 0.00 0.00 0.00 67 1009.9
20220517173503 72 347 2.0 7.0 0.00 0.00 0.00 67 1009.8
20220517173004 72 338 9.0 10.0 0.00 0.00 0.00 68 1009.8
20220517172504 72 337 4.0 12.0 0.00 0.00 0.00 68 1009.6
20220517172003 72 333 5.0 12.0 0.00 0.00 0.00 69 1009.7
20220517171504 72 335 6.0 13.0 0.00 0.00 0.00 70 1009.6
20220517171004 72 336 6.0 16.0 0.00 0.00 0.00 69 1009.6
20220517170504 72 323 10.0 13.0 0.00 0.00 0.00 68 1009.5
20220517170004 72 325 6.0 12.0 0.00 0.00 0.00 68 1009.2
20220517165503 73 334 5.0 11.0 0.00 0.00 0.00 68 1009.0